Time,TemperatureF,DewpointF,PressureIn,WindDirection,WindDirectionDegrees,WindSpeedMPH,WindSpeedGustMPH,Humidity,HourlyPrecipIn,Conditions,Clouds,dailyrainin,SoftwareType,DateUTC
2013-06-01 00:01:00,79.0,32.0,29.91,WNW,298,6.0,8.0,18,-99.99,,,-99.99,,2013-06-01 06:01:00,
2013-06-01 00:12:00,79.0,35.0,29.91,NW,312,10.0,14.0,20,-99.99,,,-99.99,,2013-06-01 06:12:00,
2013-06-01 00:22:00,80.0,36.0,29.91,NW,307,8.0,13.0,20,-99.99,,,-99.99,,2013-06-01 06:22:00,
2013-06-01 00:32:00,78.0,36.0,29.91,NW,324,7.0,9.0,22,-99.99,,,-99.99,,2013-06-01 06:32:00,
2013-06-01 00:42:00,79.0,37.0,29.91,NW,320,7.0,9.0,22,-99.99,,,-99.99,,2013-06-01 06:42:00,
2013-06-01 00:52:00,76.0,35.0,29.91,NW,309,9.0,10.0,23,-99.99,,,-99.99,,2013-06-01 06:52:00,
2013-06-01 01:01:00,76.0,36.0,29.91,NW,306,9.0,10.0,24,-99.99,,,-99.99,,2013-06-01 07:01:00,
2013-06-01 01:11:00,76.0,37.0,29.91,WNW,298,10.0,13.0,24,-99.99,,,-99.99,,2013-06-01 07:11:00,
2013-06-01 01:22:00,77.0,37.0,29.91,NW,304,12.0,14.0,23,-99.99,,,-99.99,,2013-06-01 07:22:00,
2013-06-01 01:31:00,78.0,37.0,29.92,NW,304,12.0,15.0,23,-99.99,,,-99.99,,2013-06-01 07:31:00,
2013-06-01 01:42:00,78.0,37.0,29.92,NW,305,12.0,14.0,23,-99.99,,,-99.99,,2013-06-01 07:42:00,
2013-06-01 01:52:00,78.0,37.0,29.91,NW,307,12.0,15.0,23,-99.99,,,-99.99,,2013-06-01 07:52:00,
2013-06-01 02:02:00,78.0,37.0,29.91,NW,305,10.0,14.0,23,-99.99,,,-99.99,,2013-06-01 08:02:00,
2013-06-01 02:11:00,77.0,36.0,29.91,WNW,300,10.0,12.0,23,-99.99,,,-99.99,,2013-06-01 08:11:00,
2013-06-01 02:21:00,76.0,36.0,29.91,WNW,298,9.0,10.0,24,-99.99,,,-99.99,,2013-06-01 08:21:00,
2013-06-01 02:32:00,75.0,37.0,29.91,WNW,292,8.0,10.0,25,-99.99,,,-99.99,,2013-06-01 08:32:00,
2013-06-01 02:42:00,75.0,36.0,29.91,WNW,297,8.0,10.0,25,-99.99,,,-99.99,,2013-06-01 08:42:00,
2013-06-01 02:52:00,74.0,36.0,29.92,ENE,68,5.0,6.0,25,-99.99,,,-99.99,,2013-06-01 08:52:00,
2013-06-01 03:01:00,75.0,37.0,29.92,NW,315,2.0,5.0,25,-99.99,,,-99.99,,2013-06-01 09:01:00,
2013-06-01 03:12:00,74.0,36.0,29.92,NNW,332,6.0,8.0,25,-99.99,,,-99.99,,2013-06-01 09:12:00,
2013-06-01 03:21:00,74.0,36.0,29.92,NW,325,7.0,8.0,25,-99.99,,,-99.99,,2013-06-01 09:21:00,
2013-06-01 03:33:00,73.0,36.0,29.93,NE,42,6.0,9.0,26,-99.99,,,-99.99,,2013-06-01 09:33:00,
2013-06-01 03:42:00,73.0,36.0,29.93,North,2,6.0,7.0,26,-99.99,,,-99.99,,2013-06-01 09:42:00,
2013-06-01 03:53:00,71.0,36.0,29.93,NNW,329,6.0,7.0,27,-99.99,,,-99.99,,2013-06-01 09:53:00,
2013-06-01 04:02:00,71.0,36.0,29.93,NNW,346,7.0,8.0,27,-99.99,,,-99.99,,2013-06-01 10:02:00,
2013-06-01 04:13:00,72.0,35.0,29.94,North,7,7.0,9.0,26,-99.99,,,-99.99,,2013-06-01 10:13:00,
2013-06-01 04:22:00,73.0,34.0,29.94,NNE,18,9.0,13.0,24,-99.99,,,-99.99,,2013-06-01 10:22:00,
2013-06-01 04:33:00,76.0,28.0,29.94,NNE,22,8.0,12.0,17,-99.99,,,-99.99,,2013-06-01 10:33:00,
2013-06-01 04:42:00,76.0,28.0,29.94,North,8,7.0,12.0,17,-99.99,,,-99.99,,2013-06-01 10:42:00,
2013-06-01 04:52:00,74.0,31.0,29.94,NNW,343,8.0,12.0,21,-99.99,,,-99.99,,2013-06-01 10:52:00,
2013-06-01 05:02:00,72.0,34.0,29.94,NNW,347,8.0,9.0,25,-99.99,,,-99.99,,2013-06-01 11:02:00,
2013-06-01 05:11:00,71.0,33.0,29.95,NNW,338,6.0,7.0,25,-99.99,,,-99.99,,2013-06-01 11:11:00,
2013-06-01 05:21:00,70.0,33.0,29.95,NNW,331,3.0,3.0,25,-99.99,,,-99.99,,2013-06-01 11:21:00,
2013-06-01 05:32:00,69.0,32.0,29.96,NW,324,5.0,6.0,25,-99.99,,,-99.99,,2013-06-01 11:32:00,
2013-06-01 05:42:00,69.0,31.0,29.96,NW,322,6.0,8.0,24,-99.99,,,-99.99,,2013-06-01 11:42:00,
2013-06-01 05:52:00,67.0,28.0,29.96,NW,321,7.0,8.0,23,-99.99,,,-99.99,,2013-06-01 11:52:00,
2013-06-01 06:01:00,67.0,27.0,29.96,NNW,328,7.0,8.0,22,-99.99,,,-99.99,,2013-06-01 12:01:00,
2013-06-01 06:12:00,68.0,26.0,29.96,NW,326,7.0,9.0,20,-99.99,,,-99.99,,2013-06-01 12:12:00,
2013-06-01 06:21:00,67.0,25.0,29.96,NW,325,8.0,10.0,20,-99.99,,,-99.99,,2013-06-01 12:21:00,
2013-06-01 06:32:00,67.0,23.0,29.96,NW,318,10.0,12.0,19,-99.99,,,-99.99,,2013-06-01 12:32:00,
2013-06-01 06:42:00,67.0,23.0,29.97,NW,321,9.0,14.0,19,-99.99,,,-99.99,,2013-06-01 12:42:00,
2013-06-01 06:52:00,67.0,22.0,29.98,NNW,333,5.0,7.0,18,-99.99,,,-99.99,,2013-06-01 12:52:00,
2013-06-01 07:01:00,67.0,22.0,29.98,NNW,329,6.0,7.0,18,-99.99,,,-99.99,,2013-06-01 13:01:00,
2013-06-01 07:11:00,68.0,21.0,29.98,NW,325,6.0,7.0,17,-99.99,,,-99.99,,2013-06-01 13:11:00,
2013-06-01 07:22:00,69.0,22.0,29.99,NW,324,6.0,8.0,17,-99.99,,,-99.99,,2013-06-01 13:22:00,
2013-06-01 07:32:00,71.0,19.0,29.99,NNW,333,6.0,8.0,14,-99.99,,,-99.99,,2013-06-01 13:32:00,
2013-06-01 07:42:00,72.0,20.0,29.99,NW,322,7.0,9.0,14,-99.99,,,-99.99,,2013-06-01 13:42:00,
2013-06-01 07:52:00,73.0,19.0,29.99,NNW,337,6.0,9.0,13,-99.99,,,-99.99,,2013-06-01 13:52:00,
2013-06-01 08:02:00,74.0,20.0,29.99,NNW,341,6.0,9.0,13,-99.99,,,-99.99,,2013-06-01 14:02:00,
2013-06-01 08:11:00,75.0,19.0,30.00,North,0,7.0,9.0,12,-99.99,,,-99.99,,2013-06-01 14:11:00,
2013-06-01 08:21:00,76.0,18.0,30.00,North,2,7.0,10.0,11,-99.99,,,-99.99,,2013-06-01 14:21:00,
2013-06-01 08:32:00,77.0,18.0,30.01,North,7,9.0,12.0,11,-99.99,,,-99.99,,2013-06-01 14:32:00,
2013-06-01 08:42:00,77.0,19.0,30.01,North,5,6.0,8.0,11,-99.99,,,-99.99,,2013-06-01 14:42:00,
2013-06-01 08:52:00,78.0,17.0,30.01,North,2,9.0,12.0,10,-99.99,,,-99.99,,2013-06-01 14:52:00,
2013-06-01 09:02:00,79.0,18.0,30.01,North,4,6.0,8.0,10,-99.99,,,-99.99,,2013-06-01 15:02:00,
2013-06-01 09:11:00,79.0,18.0,30.02,North,1,5.0,6.0,10,-99.99,,,-99.99,,2013-06-01 15:11:00,
2013-06-01 09:21:00,80.0,18.0,30.02,NNW,340,5.0,7.0,10,-99.99,,,-99.99,,2013-06-01 15:21:00,
2013-06-01 09:33:00,81.0,19.0,30.02,East,97,6.0,7.0,10,-99.99,,,-99.99,,2013-06-01 15:33:00,
2013-06-01 09:43:00,81.0,19.0,30.02,ESE,114,6.0,7.0,10,-99.99,,,-99.99,,2013-06-01 15:43:00,
2013-06-01 09:53:00,82.0,20.0,30.03,East,82,6.0,7.0,10,-99.99,,,-99.99,,2013-06-01 15:53:00,
2013-06-01 10:03:00,82.0,20.0,30.03,NE,51,5.0,7.0,10,-99.99,,,-99.99,,2013-06-01 16:03:00,
2013-06-01 10:12:00,83.0,21.0,30.03,ESE,103,7.0,9.0,10,-99.99,,,-99.99,,2013-06-01 16:12:00,
2013-06-01 10:23:00,83.0,21.0,30.03,East,96,7.0,9.0,10,-99.99,,,-99.99,,2013-06-01 16:23:00,
2013-06-01 10:33:00,83.0,21.0,30.03,East,91,6.0,8.0,10,-99.99,,,-99.99,,2013-06-01 16:33:00,
2013-06-01 10:42:00,83.0,21.0,30.03,ESE,110,9.0,15.0,10,-99.99,,,-99.99,,2013-06-01 16:42:00,
2013-06-01 10:52:00,84.0,22.0,30.03,ENE,78,7.0,13.0,10,-99.99,,,-99.99,,2013-06-01 16:52:00,
2013-06-01 11:02:00,85.0,23.0,30.03,ENE,64,7.0,12.0,10,-99.99,,,-99.99,,2013-06-01 17:02:00,
2013-06-01 11:12:00,86.0,21.0,30.03,ENE,66,13.0,20.0,9,-99.99,,,-99.99,,2013-06-01 17:12:00,
2013-06-01 11:22:00,87.0,19.0,30.03,NE,51,12.0,20.0,8,-99.99,,,-99.99,,2013-06-01 17:22:00,
2013-06-01 11:32:00,87.0,19.0,30.02,NE,51,14.0,22.0,8,-99.99,,,-99.99,,2013-06-01 17:32:00,
2013-06-01 11:42:00,87.0,19.0,30.02,NE,36,16.0,22.0,8,-99.99,,,-99.99,,2013-06-01 17:42:00,
2013-06-01 11:52:00,89.0,20.0,30.02,NE,52,14.0,20.0,8,-99.99,,,-99.99,,2013-06-01 17:52:00,
2013-06-01 12:01:00,89.0,20.0,30.02,NE,54,9.0,15.0,8,-99.99,,,-99.99,,2013-06-01 18:01:00,
2013-06-01 12:12:00,90.0,21.0,30.02,NE,56,12.0,14.0,8,-99.99,,,-99.99,,2013-06-01 18:12:00,
2013-06-01 12:22:00,91.0,21.0,30.02,NE,39,12.0,21.0,8,-99.99,,,-99.99,,2013-06-01 18:22:00,
2013-06-01 12:32:00,90.0,21.0,30.02,ENE,64,8.0,15.0,8,-99.99,,,-99.99,,2013-06-01 18:32:00,
2013-06-01 12:42:00,90.0,21.0,30.01,ESE,104,7.0,12.0,8,-99.99,,,-99.99,,2013-06-01 18:42:00,
2013-06-01 12:51:00,92.0,22.0,30.01,ENE,66,10.0,16.0,8,-99.99,,,-99.99,,2013-06-01 18:51:00,
2013-06-01 13:02:00,91.0,25.0,30.01,NE,55,12.0,16.0,9,-99.99,,,-99.99,,2013-06-01 19:02:00,
2013-06-01 13:11:00,91.0,25.0,30.01,NE,50,9.0,13.0,9,-99.99,,,-99.99,,2013-06-01 19:11:00,
2013-06-01 13:21:00,91.0,27.0,30.01,NNE,12,7.0,12.0,10,-99.99,,,-99.99,,2013-06-01 19:21:00,
2013-06-01 13:32:00,91.0,24.0,30.00,NNE,13,10.0,17.0,9,-99.99,,,-99.99,,2013-06-01 19:32:00,
2013-06-01 13:42:00,93.0,26.0,30.00,ENE,66,8.0,12.0,9,-99.99,,,-99.99,,2013-06-01 19:42:00,
2013-06-01 13:52:00,92.0,27.0,30.00,WNW,293,5.0,8.0,10,-99.99,,,-99.99,,2013-06-01 19:52:00,
2013-06-01 14:01:00,91.0,27.0,29.99,NNE,25,7.0,13.0,10,-99.99,,,-99.99,,2013-06-01 20:01:00,
2013-06-01 14:12:00,93.0,29.0,29.99,ENE,57,6.0,13.0,10,-99.99,,,-99.99,,2013-06-01 20:12:00,
2013-06-01 14:21:00,94.0,29.0,29.99,ESE,115,12.0,15.0,10,-99.99,,,-99.99,,2013-06-01 20:21:00,
2013-06-01 14:32:00,94.0,29.0,29.98,East,87,12.0,15.0,10,-99.99,,,-99.99,,2013-06-01 20:32:00,
2013-06-01 14:42:00,94.0,29.0,29.98,ESE,105,7.0,9.0,10,-99.99,,,-99.99,,2013-06-01 20:42:00,
2013-06-01 14:52:00,93.0,31.0,29.98,East,83,7.0,10.0,11,-99.99,,,-99.99,,2013-06-01 20:52:00,
2013-06-01 15:01:00,94.0,31.0,29.98,East,84,7.0,10.0,11,-99.99,,,-99.99,,2013-06-01 21:01:00,
2013-06-01 15:11:00,92.0,30.0,29.97,ENE,58,5.0,8.0,11,-99.99,,,-99.99,,2013-06-01 21:11:00,
2013-06-01 15:21:00,93.0,31.0,29.97,SE,126,12.0,16.0,11,-99.99,,,-99.99,,2013-06-01 21:21:00,
2013-06-01 15:33:00,93.0,31.0,29.97,South,186,7.0,10.0,11,-99.99,,,-99.99,,2013-06-01 21:33:00,
2013-06-01 15:42:00,93.0,31.0,29.97,SE,127,7.0,10.0,11,-99.99,,,-99.99,,2013-06-01 21:42:00,
2013-06-01 15:53:00,94.0,29.0,29.96,SSE,149,13.0,16.0,10,-99.99,,,-99.99,,2013-06-01 21:53:00,
2013-06-01 16:03:00,94.0,29.0,29.96,SSW,193,8.0,12.0,10,-99.99,,,-99.99,,2013-06-01 22:03:00,
2013-06-01 16:12:00,93.0,29.0,29.96,SSE,168,9.0,16.0,10,-99.99,,,-99.99,,2013-06-01 22:12:00,
2013-06-01 16:23:00,94.0,29.0,29.96,SE,131,9.0,15.0,10,-99.99,,,-99.99,,2013-06-01 22:23:00,
2013-06-01 16:33:00,93.0,29.0,29.95,WNW,284,2.0,5.0,10,-99.99,,,-99.99,,2013-06-01 22:33:00,
2013-06-01 16:42:00,94.0,29.0,29.95,ESE,108,9.0,15.0,10,-99.99,,,-99.99,,2013-06-01 22:42:00,
2013-06-01 16:53:00,94.0,29.0,29.95,ENE,58,6.0,9.0,10,-99.99,,,-99.99,,2013-06-01 22:53:00,
2013-06-01 17:02:00,94.0,29.0,29.95,SE,124,9.0,14.0,10,-99.99,,,-99.99,,2013-06-01 23:02:00,
2013-06-01 17:11:00,94.0,29.0,29.95,SSE,166,10.0,15.0,10,-99.99,,,-99.99,,2013-06-01 23:11:00,
2013-06-01 17:22:00,95.0,30.0,29.95,SSE,155,9.0,13.0,10,-99.99,,,-99.99,,2013-06-01 23:22:00,
2013-06-01 17:32:00,94.0,29.0,29.94,NE,50,2.0,5.0,10,-99.99,,,-99.99,,2013-06-01 23:32:00,
2013-06-01 17:42:00,94.0,29.0,29.94,SSE,159,6.0,7.0,10,-99.99,,,-99.99,,2013-06-01 23:42:00,
2013-06-01 17:52:00,94.0,29.0,29.94,NNE,15,5.0,6.0,10,-99.99,,,-99.99,,2013-06-01 23:52:00,
2013-06-01 18:02:00,93.0,29.0,29.93,NE,34,5.0,6.0,10,-99.99,,,-99.99,,2013-06-02 00:02:00,
2013-06-01 18:11:00,95.0,30.0,29.93,ESE,104,8.0,14.0,10,-99.99,,,-99.99,,2013-06-02 00:11:00,
2013-06-01 18:21:00,93.0,29.0,29.93,East,93,6.0,7.0,10,-99.99,,,-99.99,,2013-06-02 00:21:00,
2013-06-01 18:32:00,94.0,29.0,29.93,ESE,122,9.0,14.0,10,-99.99,,,-99.99,,2013-06-02 00:32:00,
2013-06-01 18:42:00,94.0,29.0,29.93,SSE,158,6.0,9.0,10,-99.99,,,-99.99,,2013-06-02 00:42:00,
2013-06-01 18:51:00,94.0,29.0,29.93,East,86,6.0,8.0,10,-99.99,,,-99.99,,2013-06-02 00:51:00,
2013-06-01 19:01:00,94.0,29.0,29.93,ESE,103,6.0,8.0,10,-99.99,,,-99.99,,2013-06-02 01:01:00,
2013-06-01 19:11:00,93.0,29.0,29.93,SE,124,8.0,10.0,10,-99.99,,,-99.99,,2013-06-02 01:11:00,
2013-06-01 19:21:00,93.0,28.0,29.93,ESE,105,7.0,9.0,10,-99.99,,,-99.99,,2013-06-02 01:21:00,
2013-06-01 19:32:00,93.0,28.0,29.93,ESE,102,7.0,10.0,10,-99.99,,,-99.99,,2013-06-02 01:32:00,
2013-06-01 19:42:00,92.0,28.0,29.93,East,101,9.0,13.0,10,-99.99,,,-99.99,,2013-06-02 01:42:00,
2013-06-01 19:52:00,92.0,28.0,29.93,East,101,9.0,13.0,10,-99.99,,,-99.99,,2013-06-02 01:52:00,
2013-06-01 20:01:00,92.0,27.0,29.94,East,83,7.0,8.0,10,-99.99,,,-99.99,,2013-06-02 02:01:00,
2013-06-01 20:12:00,91.0,29.0,29.94,East,96,7.0,8.0,11,-99.99,,,-99.99,,2013-06-02 02:12:00,
2013-06-01 20:21:00,90.0,29.0,29.94,East,100,7.0,8.0,11,-99.99,,,-99.99,,2013-06-02 02:21:00,
2013-06-01 20:32:00,89.0,28.0,29.94,East,98,6.0,8.0,11,-99.99,,,-99.99,,2013-06-02 02:32:00,
2013-06-01 20:41:00,88.0,29.0,29.94,East,91,6.0,7.0,12,-99.99,,,-99.99,,2013-06-02 02:41:00,
2013-06-01 20:52:00,87.0,28.0,29.94,East,87,5.0,6.0,12,-99.99,,,-99.99,,2013-06-02 02:52:00,
2013-06-01 21:02:00,86.0,28.0,29.95,East,98,5.0,6.0,12,-99.99,,,-99.99,,2013-06-02 03:02:00,
2013-06-01 21:11:00,85.0,26.0,29.95,ESE,118,7.0,7.0,12,-99.99,,,-99.99,,2013-06-02 03:11:00,
2013-06-01 21:21:00,84.0,28.0,29.96,SE,131,9.0,13.0,13,-99.99,,,-99.99,,2013-06-02 03:21:00,
2013-06-01 21:33:00,86.0,31.0,29.96,ESE,122,9.0,13.0,14,-99.99,,,-99.99,,2013-06-02 03:33:00,
2013-06-01 21:43:00,86.0,31.0,29.96,ESE,119,9.0,13.0,14,-99.99,,,-99.99,,2013-06-02 03:43:00,
2013-06-01 21:52:00,85.0,31.0,29.97,ESE,117,10.0,13.0,14,-99.99,,,-99.99,,2013-06-02 03:52:00,
2013-06-01 22:02:00,85.0,31.0,29.97,ESE,115,10.0,14.0,14,-99.99,,,-99.99,,2013-06-02 04:02:00,
2013-06-01 22:13:00,85.0,33.0,29.97,ESE,115,10.0,14.0,15,-99.99,,,-99.99,,2013-06-02 04:13:00,
2013-06-01 22:23:00,85.0,32.0,29.98,ESE,119,12.0,14.0,15,-99.99,,,-99.99,,2013-06-02 04:23:00,
2013-06-01 22:33:00,85.0,34.0,29.98,ESE,117,13.0,18.0,16,-99.99,,,-99.99,,2013-06-02 04:33:00,
2013-06-01 22:42:00,85.0,34.0,29.98,ESE,119,15.0,18.0,16,-99.99,,,-99.99,,2013-06-02 04:42:00,
2013-06-01 22:52:00,85.0,33.0,29.99,ESE,121,15.0,20.0,16,-99.99,,,-99.99,,2013-06-02 04:52:00,
2013-06-01 23:02:00,84.0,35.0,29.99,ESE,118,13.0,17.0,17,-99.99,,,-99.99,,2013-06-02 05:02:00,
2013-06-01 23:12:00,84.0,34.0,29.99,ESE,118,13.0,16.0,17,-99.99,,,-99.99,,2013-06-02 05:12:00,
2013-06-01 23:22:00,83.0,34.0,29.99,ESE,117,14.0,18.0,17,-99.99,,,-99.99,,2013-06-02 05:22:00,
2013-06-01 23:32:00,83.0,34.0,30.00,ESE,114,13.0,17.0,17,-99.99,,,-99.99,,2013-06-02 05:32:00,
2013-06-01 23:42:00,83.0,34.0,30.00,ESE,114,14.0,18.0,17,-99.99,,,-99.99,,2013-06-02 05:42:00,
2013-06-01 23:52:00,82.0,35.0,30.00,ESE,118,14.0,21.0,18,-99.99,,,-99.99,,2013-06-02 05:52:00,